Home > Weather > Bremerhaven > Past weeks

Flag for Germany Past Weather in Bremerhaven, Bremen, Germany — Yesterday and Last 2 Weeks

Now
77 °F

Partly sunny.


Feels Like: 79 °F
Forecast: 60 / 79 °F
Wind: 3 mph from East

Location: Nordholz

Current Time: Jul 23, 2016 at 1:19:55 PM

Latest Report: Jul 23, 2016 at 12:20 PM


Visibility: N/A

Pressure: 30.09 "Hg

Humidity: 54%

Dew Point: 59 °F

Location of BremerhavenLocation

Past Weather in Bremerhaven — Graph

°F

Bremerhaven Temperature Yesterday

Maximum temperature yesterday: 73 °F (at 4:20 PM)
Minimum temperature yesterday: 64 °F (at 2:20 AM)
Average temperature yesterday: 68 °F

High & Low Weather Summary for the Past Weeks

 TemperatureHumidityPressure
High84 °F (Jul 20, 4:20 PM)100% (Jul 9, 9:49 PM)30.21 "Hg (Jul 9, 9:49 PM)
Low52 °F (Jul 14, 3:20 AM)45% (Jul 20, 4:20 PM)29.68 "Hg (Jul 11, 3:20 AM)
Average64 °F80%29.99 "Hg
* Reported Jul 8 11:20 AM — Jul 23 11:20 AM, Bremerhaven, Weather by CustomWeather, © 2016

Note: Actual official high and low records may vary slightly from our data, if they occured in-between our weather recording intervals... More about our weather records

Advertising

Bremerhaven Weather History for the Previous 24 Hours

Scroll right to see more
 ConditionsComfort  
Time TempWeatherWind HumidityBarometerVisibility
11:20 AM
Sat, Jul 23
75 °FPartly sunny.2 mph57%30.09 "HgN/A
10:20 AM73 °FPartly sunny.2 mph69%30.07 "HgN/A
9:20 AM70 °FPartly sunny.3 mph78%30.07 "HgN/A
8:20 AM68 °FFog.5 mph94%30.07 "Hg3 mi
7:49 AM66 °FFog.3 mph100%30.07 "Hg2 mi
7:20 AM66 °FFog.No wind100%30.07 "Hg0 mi
6:20 AM64 °FFog.2 mph100%30.07 "Hg0 mi
5:20 AM64 °FFog.2 mph94%30.07 "Hg0 mi
4:20 AM64 °FFog.3 mph94%30.07 "Hg0 mi
3:20 AM64 °FFog.6 mph100%30.07 "Hg1 mi
2:20 AM64 °FFog.6 mph100%30.07 "Hg1 mi
1:20 AM64 °FPassing clouds.3 mph100%30.07 "Hg4 mi
12:20 AM64 °FPassing clouds.3 mph94%30.07 "Hg4 mi
11:20 PM
Fri, Jul 22
66 °FPassing clouds.3 mph94%30.07 "Hg5 mi
10:20 PM66 °FBroken clouds.1 mph94%30.07 "Hg4 mi
9:20 PM66 °FBroken clouds.3 mph94%30.07 "Hg4 mi
8:20 PM68 °FLight rain. Partly sunny.7 mph88%30.07 "Hg5 mi
7:20 PM68 °FPartly sunny.6 mph88%30.07 "HgN/A
6:20 PM70 °FPartly sunny.8 mph83%30.04 "Hg6 mi
5:20 PM70 °FPartly sunny.9 mph83%30.04 "Hg6 mi
4:20 PM73 °FPartly sunny.7 mph74%30.04 "HgN/A
2:20 PM70 °FPartly sunny.6 mph83%30.04 "Hg5 mi
1:20 PM70 °FPartly sunny.7 mph83%30.04 "Hg5 mi
Weather by CustomWeather, © 2016

See weather overviewHow to use our weather pages